Race Results for
MSC #7, Keystone Classic
Keystone, CO
(Event Information)
Cross Country on 07/23/2011

Note: Ranking points are NOT upgrade points. An explanation of ranking points can be found here.


Men - Singlespeed

 Place Points NameCity, StateTime USAC #BibTeam
1448.55Mark Thompson   Breckenridge, CO1:49:44.4 189745  697 CoMotionSports
2506.41Nick Thelen   Colorado Springs, CO2:03:49.6 200176  592 Ascent Cycling
3564.27Doug Dupuie   Denver, CO2:06:24.1 76455  619 COMotion Sports / Yeti

Men - Cat 1/2/3 - 1-14

 Place Points NameCity, StateTime USAC #BibTeam
1476.25Trevor von Boeck   Colorado Springs, CO58:42.1 348604  705 Bandwagon Racing
2489.89Adin Baird   Denver, CO1:00:49.1 302831  812 Co-Motion Sports
3503.53Henry Harris   Louisville, CO1:02:36.2 295992  713 Justin's MTB Team
4517.17Ross Ellwood   Boulder, CO1:04:13.4 298726  733 
5530.81Kaden Sites   Salida, CO1:14:25.0 348594  539 RPM/YETI
6544.45David Harris   Louisville, CO1:18:31.2 297686  714 Justin's MTB Team
7558.09Chase Willie   Longmont, CO1:21:24.2 298487  761 SMBA
8571.73Mark Harris   Louisville, CO1:34:19.3 311063  715 Justin's MTB Team

Men - CAT 3 - 15-18

 Place Points NameCity, StateTime USAC #BibTeam
1512.35Jacob CarterGibb   Boulder, CO1:11:41.6 350018  729 Tokyo Joes
2551.18mitch labree   Colorado Springs, CO1:21:56.8 350034  784 Front Rangers
3Scott Way   1:25:18.8  838 Green Mountain Sports
DNSZach Graveson   Pagosa Springs, CODNS 350876  621 Pedal and Powder

Men - CAT 3 - 19-29

 Place Points NameCity, StateTime USAC #BibTeam
1Brent Kingen   Greenwood, IN1:00:39.9 343028  826 
2Scott Polly   1:15:38.8  510 One Ghost Industries

Men - CAT 3 - 30-39

 Place Points NameCity, StateTime USAC #BibTeam
1Robert Edwards   1:06:46.6  551 
2Paul Lee   1:08:27.2  817 

Men - CAT 3 - 40-99

 Place Points NameCity, StateTime USAC #BibTeam
1540.00Dave Kingen   Snowmass, CO1:10:04.8 19197  825 
2Martin Krekow   1:14:51.8  548 Water Works Car Wash
3590.00Scott Swandal   Colorado Springs, CO1:34:27.2 244601  503 One Ghost Industries

Men - CAT 2 - 15-18

 Place Points NameCity, StateTime USAC #BibTeam
1398.21Justin Noel   Boulder1:00:49.1 318254  710 SMBA
2415.62W Grant Ellwood   Boulder, CO1:03:32.0 298725  734 
3433.03Garrett Sczechowski   Boulder, CO1:04:38.4 345782  794 Boulder Junior Cycling/Tokyo Joes Jr Development Team
4450.44Garrett Gerchar   Boulder, CO1:06:01.6 344890  724 Tokyo Joes
5467.85Max Neuman   Boulder, CO1:06:32.9 298476  656 SMBA
6485.26Jacob Templin   Thornton, CO1:11:57.9 303816  553 Team Colorado Single Track
7Audie Ryburn   1:15:55.6  651 
8520.08Griffith Wendland   Louisville, CO1:18:40.5 320884  696 Meta Racing/Crank Bros/GU Energy
DNSBritt Douglas   DNS  591 

Men - CAT 2 - 19-29

 Place Points NameCity, StateTime USAC #BibTeam
1Tyler Sutton   1:07:49.6  824 Wal-Mart BMC
2565.00Aaron Gonzales   Pueblo, CO1:07:54.1 348596  819 
3590.00Justin White   Aspen, CO1:10:03.4 347218  726 COMotion Sports/Yeti

Men - CAT 2 - 30-39

 Place Points NameCity, StateTime USAC #BibTeam
1Matt Kuusinen   1:06:43.0  634 
2500.41Steve Warfel   Denver, CO1:07:40.4 295059  509 Feedback Sports
3508.55Phillip Stevens   Leadville, CO1:10:07.6 34096  537 Colorado Custom Wood Floors
4516.69Chris Arterburn   Broomfield, CO1:10:08.4 78478  807 Bicycle Village
5524.83Adam Miller   Louisville, CO1:11:41.4 337586  818 
6532.97Craig OBoyle   Colorado Springs, CO1:16:34.0 322154  821 OBoylegroups.net
7541.11Russell Anderson   Littleton, CO1:18:32.8 355422  568 
8549.25Matthew Young   Woodland Park, CO1:20:57.4 220721  543 
9557.39William Banks   Monument, CO1:22:17.0 146740  661 Seek 1
10565.53Todd Wixon   Omaha, NE1:23:50.3 340746  641 EVCC-MONSTER
11573.67Jesse Sherwood   Silverthorne, CO1:27:41.2 316988  832 Flatwater Cycling/Bike Pedalers
12581.81Richard Price   Grand Junction, CO1:28:42.8 28700  672 LiveTrainRace.com
13Jason Turner   1:31:12.0  747 
DNSWilliam DiMaio Jr.   Highlands Ranch, CODNS 190107  582 
DNSJosh Marceau   DNS  663 Directory Plus / Trek

Men - CAT 2 - 40-49

 Place Points NameCity, StateTime USAC #BibTeam
1427.11kevin douglas   Edwards, CO1:06:36.8 333394  545 Kind Cyclist
2Wade Metzler   1:11:31.4  620 
3443.49Brett Hoopes   Golden, CO1:11:32.6 136437  833 
4451.68Vernon Harris   Louisville, CO1:11:40.4 15167  711 Justin's MTB Team
5459.87Tim Dardis   Boulder, CO1:11:57.1 279758  782 
6468.06Mark Nudelman   Thronton, CO1:13:11.4 320434  684 Club Treads
7476.25Andy Ramirez   Superior, CO1:16:49.6 176007  822 
8484.44William Houth   Fountain, CO1:18:34.0 337942  626 
9Brad Benefiel   1:18:57.6  830 
10500.82Michael Cook   Aspen, CO1:18:59.3 277690  743 The Next Level
11Jeremy Templin   1:19:23.5  554 Team Colorado Single Track
12517.20Antony Bahr   Englewood, CO1:20:47.1 2251  602 Colorado Singletrack
13525.39Ian Jardine   Colorado Springs, CO1:22:55.0 285734  564 Team Colorado Single Track
14533.58roger villmow   Woodland Park, CO1:23:27.0 293337  674 LifeQuest
15Greg Fuller   1:27:20.2  681 MMRF
DNSJonathan Jones   Denver, CODNS 344866  563 
DNSRoger Ryburn   DNS  708 

Men - CAT 2 - 50-99

 Place Points NameCity, StateTime USAC #BibTeam
1Jeff Burrows   1:12:45.4  811 

Men - CAT 1 - 15-18

 Place Points NameCity, StateTime USAC #BibTeam
1355.85Matthew DeBalski   Colorado Springs, CO59:00.1 317262  783 Front Rangers
2429.61Joe Christiansen   Lyons, CO1:04:40.6 295821  505 Redstone Cyclery
3503.37Sam Blomquist   Berthoud, CO1:04:51.6 298233  737 Niner Bikes

Men - CAT 1 - 19-29

 Place Points NameCity, StateTime USAC #BibTeam
1315.47Samuel Morrison   Boulder, CO1:50:57.9 265086  801 Epic Endurance
2332.87Colin Jenkins   Aurora, CO2:00:42.6 258894  644 CoMotion sports/YETI
3350.27William Lewis   Leadville, CO2:00:43.3 303235  804 COMotion Sports/Yeti
4367.67Scott Archer   Breckenridge, CO2:05:47.8 349822  802 
5385.07Joshua Murdock   Baldwin, MD2:06:57.6 327552  744 Peak Cycles/Bikeparts.com
6402.47Daniel Gerow   Grosse Pointe Farms, MI2:10:54.2 285633  805 Amicas / Absolute Bikes
7419.87Christopher Convis   San Luis Obispo, CA2:12:36.6 238239  787 Club Treads
8437.27Drew Hogg   College Park, MD2:14:12.7 260582  740 Mafia Racing
9454.67Alex Pond   Steamboat Springs, CO2:36:20.2 325804  612 Steamboat Velo
DNSTaylor Schmidt   Littleton, CODNS 257291  676 OES/BikeSource

Men - CAT 1 - 30-39

 Place Points NameCity, StateTime USAC #BibTeam
1353.31Jason Anderson   Aspen, CO1:51:22.0 259703  603 Ajax Tavern
2379.08Kurt Kropp   Denver, CO1:53:44.7 93553  638 Salvagetti/Mosaic
3404.85Nicholas Kempin   Crested Butte, CO1:54:28.2 18874  741 Alpine Orthopaedics
4430.62John Klish   Grand Junction, CO1:56:10.9 193003  810 Mtn Pedaler / Honey Stinger / Julbo Eyewear
5456.39Ben Truitt   Lakewood, CO2:04:11.9 198770  586 COMotion Sports/Yeti
6482.16Jeremy Young   Boulder, CO2:04:53.1 39290  703 Trek Bicycle Store
DNSJeremy Miller   Denver, CODNS 246071  513 COmotion Sports

Men - CAT 1 - 40-49

 Place Points NameCity, StateTime USAC #BibTeam
1306.01Dave Muscianisi   Littleton, CO1:52:59.0 25565  601 Funk Cycles
2330.77Thomas Meiser   Lakewood, CO1:58:17.1 23951  609 Team Rockford
3355.53Joseph Cooper   Superior, CO1:59:09.0 50587  752 Twin Peaks Cycling Team
4380.29Ashley Goodwin   Colorado Springs , CO2:02:39.0 146662  808 
5405.05Cary Dunn   Pine, CO2:03:00.3 10203  709 OES-BS
6429.81Darron Cheek   Breckenridge, CO2:03:21.4 192447  727 breck velo
7454.57Eric Thompson   Fort Collins, CO2:13:17.9 279361  574 Peloton Cycles
8479.33Mike Driver   Fruita, CO2:21:49.3 294288  652 Livetrainrace.com
DNSRyan Gilmer   Wheat Ridge, CODNS 13306  597 Groove Subaru - Alpha Bicycle Company
DNSKevin Minard   Dillon, CODNS 210824  659 MSO

Men - CAT 1 - 50-99

 Place Points NameCity, StateTime USAC #BibTeam
1394.58Wade Wilderman   Fraser, CO1:59:33.4 38221  753 Rocky Mtn Roastery
2478.82Paul Raemer   Centennial, CO2:13:58.0 292266  701 Funk Cycles
3563.06Bruce Martin   Littleton, CO2:26:29.0 323838  800 Funk Cycles

Men - Pro

 Place Points NameCity, StateTime USAC #BibTeam
1195.89Jay Henry   Avon, CO1:42:05.5 15853  40 Tokyo Joe's
2210.73Nick Truitt   Breckenridge, CO1:44:33.3 198767  42 Yeti/Jett Pro XC Team
3225.57Kevin Kane   Dillon, CO1:47:27.6 223277  30 Rocky Mountain Factory Team
4240.41Anthony Iannacito   Denver, CO1:48:40.0 225551  52 Rocky Mountain Racing
5255.25Spencer Powlison   Boulder, CO1:49:15.4 161897  22 Mafia Racing
6270.09Jason Holbrook   Boulder, CO1:50:48.2 211236  Yeti/Jett Pro XC Team
7284.93Graham Aldredge   Boulder, CO1:52:20.1 260538  34 Carmichael Training Systems
8299.77Shawn Meredith   Denver, CO1:54:09.9 251715  56 Rocky Mtn Racing
9314.61Jordan Williford   Boulder, CO2:05:25.0 246497  Epic Endurance Cycling
DNSCampbell Levy   Centennial, CODNS 116610  Yeti/Jett Pro XC Team
DNSErnie Watenpaugh   Telluride, CODNS 37334  LifeCycles / Specialized / Honey Stinger
DNSMike West   Boulder, CODNS 37786  17 Yeti Cycles
DNSShad Schreiner   Colorado Springs, CODNS 241806  38 High Gear/Trek

Women - CAT 3 - 15-18

 Place Points NameCity, StateTime USAC #BibTeam
1Birgit Morris   Grand Junction, CO1:16:26.8 357254  757 

Women - CAT 3 - 19-29

 Place Points NameCity, StateTime USAC #BibTeam
1Elizabeth Sampey   Crested Butte, CO1:23:21.0 339186  668 Pedal Pushers Cyclery

Women - CAT 3 - 30-39

 Place Points NameCity, StateTime USAC #BibTeam
1Sarah Francis   1:24:08.5  613 Ruby Canyon Cycles

Women - CAT 3 - 40-99

 Place Points NameCity, StateTime USAC #BibTeam
1Anna Giovinetto   1:26:02.9  544 

Women - CAT 2 - 15-18

 Place Points NameCity, StateTime USAC #BibTeam
1447.13Ksenia Lepikhina   Boulder, CO1:17:47.6 296745  820 Tokyo Joes
2518.57Rachel Harris   Louisville, CO1:38:24.0 297671  712 Justin's MTB Team
3590.01Sage Kitson   Salida Co1:49:07.4 348606  511 RPM/Yeti

Women - CAT 2 - 30-39

 Place Points NameCity, StateTime USAC #BibTeam
1Michele DeWine   Avon, CO1:18:40.6 356807  569 progressive trail design
2Jennifer Hill   Erie, CO1:23:28.6 253682  706 Rivet SG

Women - CAT 2 - 40-99

 Place Points NameCity, StateTime USAC #BibTeam
1Karin Voll Barclay   Boulder, CO1:33:32.9 115750  642 CoMotion Sports/Yeti

Women - CAT 1 - 15-18

 Place Points NameCity, StateTime USAC #BibTeam
1Lindsay Dye   Flagstaff, AZ1:21:09.5 296092  512 Tokyo Joe's
2Ariana Dittmer   Grand Junction, CO1:23:13.2 305828  814 CoMotion Sport

Women - CAT 1 - 19-29

 Place Points NameCity, StateTime USAC #BibTeam
1408.74Sydney Fox   Dillon, CO2:06:52.9 337570  646 Yeti Grassroots
2490.62Katie Sodergren   Breckenridge, CO2:20:43.7 284503  558 COmotion Sports / Yeti
3572.50Jenny Gilkerson   Denver, CO2:25:28.2 347186  629 Co motion
DNSJourdan Baldwin   Fort Collins, CODNS 276667  547 CSU / Road 34

Women - CAT 1 - 30-39

 Place Points NameCity, StateTime USAC #BibTeam
1409.58Jill Hueckman   Durango, CO2:22:51.0 350478  671 Adrenalin Cycles
2432.33Willa Johnson   Boulder, CO2:30:56.5 244213  803 Rivet Sports Garage
3455.08Maura McGovern   Denver, CO2:31:34.7 191585  777 Rocky Mountain Racing
4477.83Lynn Bush   Arvada, CO2:49:50.9 217462  809 Tough Girl / SCOTT
5500.58Evelyn Calhoun   Denver, CO2:58:33.6 288128  604 Commotion/YETI
DNSTamara Donelson   Edwards, CODNS 284209  552 Ells Angels

Women - CAT 1 - 40-99

 Place Points NameCity, StateTime USAC #BibTeam
1358.95Holly Wade   Dillon, CO2:17:04.8 228978  725 COMotion Sports/Yeti Cycles
2378.89Christine Irelan   Colorado Springs, CO2:21:46.7 293959  792 
3398.83Jennifer Boldry   Broomfield, CO2:26:36.2 346612  806 
4418.77Shelly Raemer   Centennial, CO2:29:31.2 294649  702 Funk Cycles
5438.71Lynne McDade   Lakewood, CO2:34:22.7 320830  502 CoMotion Sports/YETI

Women - Pro

 Place Points NameCity, StateTime USAC #BibTeam
1253.37Rebecca Gross   Golden, CO2:17:50.4 176014  35 Velo Bella
2361.14Sarah Rawley   Dillon, CO2:20:24.7 234957  41 Yeti Beti
3468.91Tracy Thelen   Colorado Springs, CO2:24:06.4 245202  21 Ascent Cycling

Report missing or incorrect license numbers

Volkswagen
Sierra NevadaSpyUSACDFShimanoBonk Breaker
UCI USA Cycling is the official governing body for all disciplines of competitive cycling in the United States. The 501c3, membership-based organization aims both to achieve sustained success in international cycling competition and to grow competitive cycling in America while delivering an exceptional customer experience.
View Children's Online Privacy Protection Policy
US Olympic Committee